Location: Borowce
(50.8255°N, 19.6209°E)
Time: 16:51:20
(UTC+00:00)

Cosmos 1980 Rocket - Pass Details

Date: 19 May 2025
Orbit: 829 x 848 km, 71.0° (Epoch: 21 June)

Event Time Altitude Azimuth Distance (km) Brightness Sun altitude
Rises 20:46:14 0° 328° (NNW) 3,383 7.2 -15.1°
Reaches altitude 10° 20:48:42 10° 325° (NW) 2,446 6.0 -15.2°
Maximum altitude 20:54:13 62° 246° (WSW) 931 2.4 -15.6°
Enters shadow 20:57:38 24° 173° (S) 1,681 3.2 -15.8°
